Regional Weather Roundup
Issued by NWS Jackson, KY

Home | Current Version | Previous Version | Text Only | Print | Product List | Glossary Off
Versions: 1 2 3 4 5 6 7 8 9 10 11 12 13 14 15 16 17 18 19 20 21 22 23 24 25 26 27 28 29 30 31 32 33 34 35 36 37 38 39 40 41 42 43 44 45 46 47 48 49 50

000
ASUS43 KJKL 242119
RWRJKL

EAST KENTUCKY HOURLY WEATHER ROUNDUP
NATIONAL WEATHER SERVICE JACKSON KY
500 PM EDT THU APR 24 2014

NOTE: "FAIR" INDICATES FEW OR NO CLOUDS BELOW 12,000 FEET WITH
NO SIGNIFICANT WEATHER AND/OR OBSTRUCTIONS TO VISIBILITY.

* THESE REPORTS ARE NOT UNDER NWS QUALITY CONTROL AND MAY NOT
  REPORT WEATHER SUCH AS PRECIPITATION AND FOG.

KYZ079-080-083-085-087-088-110-112-115-119-120-242200
...EASTERN KENTUCKY...

CITY           SKY/WX    TMP DP  RH WIND       PRES   REMARKS
JACKSON        SUNNY     75  30  19 CALM      29.93F
LONDON         PTSUNNY   77  31  18 VRB5      29.89F
SOMERSET*      MOSUNNY   77  32  19 CALM      29.88F
MIDDLESBORO*   PTSUNNY   77  32  19 S7        29.92F
HARLAN APT*    CLEAR     77  21  12 W7        29.92S
BLACK MTN*       N/A     64  25  22 S6          N/A
PIKEVILLE APT* SUNNY     72  32  23 W3        29.92F
BIG SANDY*     PTCLDY    73  32  22 CALM      29.93F
ASHLAND*       SUNNY     70  25  18 SE3       29.93F
MOREHEAD APT*  CLEAR     70  30  23 MISG      29.95F
$$

KYZ035-036-041-042-044-050-067-078-099-242200
...CENTRAL KENTUCKY...

CITY           SKY/WX    TMP DP  RH WIND       PRES   REMARKS
MT STERLING*   MOSUNNY   70  37  30 E6        29.93F
FLEMING/MASON* MOSUNNY   66  32  28 CALM      29.95F
RICHMOND*      PTSUNNY   73  37  27 N5        29.89F
LEXINGTON      MOSUNNY   72  36  26 S9        29.90F
FRANKFORT      MOSUNNY   70  40  33 VRB5      29.88F
$$

KYZ091>093-OHZ055-061-077-WVZ005-015-034-035-042-242200
...SOUTHERN OHIO/WEST VIRGINIA...

CITY           SKY/WX    TMP DP  RH WIND       PRES   REMARKS
COVINGTON      PTSUNNY   65  31  28 SE9       29.92F
COLUMBUS       CLOUDY    62  21  20 E5        29.98F
DAYTON         CLOUDY    62  23  22 SE10      29.95F
WILMINGTON     PTSUNNY   62  19  19 SE10      29.94F
HUNTINGTON     MOSUNNY   68  22  17 VRB5      29.94F
CHARLESTON     MOSUNNY   70  16  12 CALM      29.95F
PINEVILLE*     SUNNY     76  31  18 MISG      29.99S
BECKLEY        SUNNY     68  21  16 E6        29.97F
BLUEFIELD      SUNNY     74  24  15 W6        29.97F
$$

VAZ002-007-008-TNZ017-027-036-066-071-242200
...SOUTHWEST VIRGINIA/EAST TENNESSEE...

CITY           SKY/WX    TMP DP  RH WIND       PRES   REMARKS
WISE*          SUNNY     75  19  12 SE3       29.97S
ABINGDON*      SUNNY     76  20  12 NW5       29.95S
BRISTOL        PTSUNNY   77  21  12 SW6       29.92F
KNOXVILLE      CLOUDY    77  40  26 W12       29.90F
OAK RIDGE      PTSUNNY   79  37  22 SW6       29.92F
CROSSVILLE     MOSUNNY   74  33  22 VRB7      29.93F
NASHVILLE      PTSUNNY   80  43  26 S12       29.85F
$$

...KEY TO REMARKS...
VSB - VISIBILITY IN MILES
WCI - WIND CHILL INDEX
HX  - HEAT INDEX

$$



USA.gov is the U.S. government's official web portal to all federal, state and local government web resources and services.